QPF
0.07 0.09 0.09 0.08 0.09 0.07 0.06 0.05 0.04 0.04 0.04 0.04 0.03 0.03 0.03 0.04 0.07 0.05 0.05 0.04 0.04 0.05 0.07 0.08 0.06 0.04 0.04 0.02 0.02 0.03 0.03 0.03 0.03 0.03 0.02 0.02 0.01 0.01 0.02 0.03 0.03 0.05 0.05
0.10 0.11 0.12 0.11 0.12 0.11 0.08 0.06 0.05 0.04 0.04 0.04 0.04 0.04 0.04 0.05 0.07 0.06 0.06 0.04 0.04 0.04 0.05 0.06 0.06 0.05 0.04 0.03 0.03 0.02 0.02 0.02 0.02 0.03 0.03 0.02 0.02 0.02 0.02 0.02 0.03 0.04 0.06
0.11 0.12 0.12 0.11 0.10 0.12 0.10 0.08 0.05 0.04 0.04 0.03 0.03 0.04 0.04 0.05 0.06 0.07 0.05 0.03 0.02 0.03 0.03 0.04 0.05 0.05 0.05 0.04 0.04 0.04 0.03 0.03 0.03 0.03 0.03 0.02 0.02 0.03 0.02 0.02 0.02 0.02 0.04
0.08 0.10 0.11 0.10 0.09 0.10 0.11 0.09 0.06 0.05 0.05 0.04 0.04 0.04 0.04 0.04 0.05 0.06 0.05 0.03 0.03 0.03 0.03 0.03 0.03 0.03 0.05 0.06 0.05 0.05 0.04 0.04 0.03 0.03 0.03 0.03 0.03 0.02 0.02 0.03 0.03 0.02 0.02
0.11 0.12 0.11 0.10 0.12 0.12 0.12 0.11 0.08 0.05 0.04 0.03 0.04 0.04 0.03 0.02 0.03 0.05 0.06 0.04 0.04 0.03 0.03 0.02 0.02 0.02 0.02 0.03 0.04 0.04 0.04 0.03 0.02 0.02 0.03 0.04 0.03 0.02 0.02 0.02 0.02 0.03 0.03
0.16 0.14 0.12 0.11 0.12 0.13 0.15 0.15 0.10 0.08 0.05 0.03 0.03 0.04 0.03 0.03 0.03 0.04 0.05 0.04 0.03 0.03 0.03 0.02 0.02 0.02 0.02 0.03 0.04 0.04 0.04 0.04 0.03 0.03 0.03 0.03 0.03 0.03 0.03 0.03 0.03 0.03 0.03
0.10 0.12 0.12 0.13 0.10 0.09 0.12 0.14 0.09 0.08 0.07 0.05 0.04 0.03 0.03 0.02 0.02 0.03 0.04 0.05 0.04 0.03 0.03 0.03 0.02 0.02 0.02 0.02 0.03 0.03 0.04 0.05 0.05 0.04 0.04 0.03 0.03 0.04 0.04 0.04 0.04 0.04 0.03
0.06 0.07 0.06 0.10 0.13 0.09 0.06 0.06 0.05 0.05 0.05 0.05 0.04 0.03 0.03 0.03 0.03 0.02 0.03 0.03 0.03 0.03 0.04 0.03 0.02 0.01 0.02 0.03 0.03 0.04 0.05 0.06 0.06 0.05 0.05 0.04 0.03 0.04 0.05 0.05 0.04 0.03 0.03
0.06 0.06 0.05 0.06 0.11 0.14 0.07 0.04 0.03 0.04 0.04 0.04 0.03 0.03 0.03 0.02 0.01 0.02 0.01 0.02 0.03 0.04 0.05 0.03 0.02 0.01 0.01 0.02 0.02 0.03 0.05 0.06 0.06 0.06 0.07 0.05 0.04 0.04 0.04 0.03 0.03 0.02 0.02
0.07 0.06 0.05 0.05 0.05 0.08 0.08 0.05 0.03 0.04 0.04 0.03 0.02 0.02 0.02 0.02 0.02 0.02 0.01 0.01 0.02 0.03 0.05 0.05 0.02 0.02 0.01 0.01 0.01 0.01 0.03 0.04 0.05 0.05 0.04 0.05 0.04 0.03 0.03 0.03 0.03 0.03 0.03
0.06 0.05 0.05 0.05 0.04 0.04 0.05 0.05 0.04 0.04 0.03 0.02 0.02 0.02 0.02 0.02 0.01 0.02 0.01 0.02 0.02 0.02 0.03 0.04 0.04 0.02 0.01 0.00 0.01 0.01 0.01 0.01 0.02 0.02 0.03 0.04 0.04 0.04 0.03 0.04 0.04 0.04 0.04
0.06 0.06 0.05 0.05 0.04 0.04 0.03 0.04 0.04 0.04 0.04 0.04 0.04 0.03 0.03 0.02 0.01 0.02 0.02 0.03 0.03 0.01 0.02 0.03 0.03 0.02 0.02 0.01 0.01 0.01 0.01 0.01 0.02 0.01 0.02 0.02 0.02 0.03 0.03 0.04 0.04 0.03 0.03
0.07 0.08 0.08 0.07 0.05 0.04 0.04 0.04 0.04 0.05 0.06 0.06 0.05 0.04 0.04 0.03 0.03 0.03 0.03 0.03 0.03 0.02 0.03 0.03 0.03 0.02 0.02 0.02 0.02 0.03 0.02 0.02 0.02 0.01 0.01 0.01 0.02 0.02 0.02 0.03 0.03 0.03 0.03
0.06 0.06 0.07 0.07 0.06 0.04 0.04 0.04 0.05 0.05 0.05 0.06 0.06 0.05 0.05 0.04 0.04 0.05 0.05 0.04 0.03 0.03 0.03 0.02 0.03 0.03 0.04 0.04 0.05 0.06 0.05 0.04 0.03 0.02 0.01 0.01 0.01 0.02 0.01 0.02 0.02 0.02 0.03
0.04 0.04 0.04 0.06 0.06 0.04 0.04 0.05 0.05 0.05 0.05 0.05 0.05 0.06 0.05 0.04 0.04 0.04 0.04 0.05 0.05 0.04 0.03 0.03 0.03 0.02 0.02 0.03 0.03 0.03 0.03 0.04 0.03 0.02 0.01 0.01 0.01 0.01 0.01 0.01 0.01 0.01 0.02
0.04 0.02 0.01 0.02 0.05 0.04 0.04 0.06 0.06 0.07 0.07 0.07 0.06 0.07 0.08 0.08 0.06 0.05 0.04 0.05 0.05 0.06 0.05 0.03 0.03 0.03 0.02 0.02 0.02 0.02 0.02 0.02 0.02 0.02 0.01 0.01 0.01 0.01 0.01 0.01 0.01 0.01 0.01
0.04 0.03 0.02 0.02 0.03 0.04 0.04 0.05 0.05 0.04 0.05 0.05 0.05 0.05 0.06 0.06 0.07 0.07 0.06 0.05 0.05 0.06 0.06 0.05 0.04 0.04 0.03 0.03 0.02 0.01 0.02 0.02 0.02 0.02 0.01 0.01 0.01 0.01 0.01 0.02 0.02 0.02 0.02
0.02 0.03 0.02 0.02 0.01 0.02 0.03 0.04 0.04 0.03 0.03 0.03 0.03 0.03 0.04 0.04 0.05 0.06 0.06 0.05 0.05 0.05 0.05 0.06 0.05 0.05 0.03 0.02 0.02 0.01 0.01 0.01 0.01 0.02 0.02 0.02 0.01 0.01 0.01 0.01 0.02 0.03 0.03
0.03 0.03 0.02 0.02 0.02 0.02 0.03 0.04 0.04 0.04 0.04 0.02 0.02 0.02 0.02 0.03 0.03 0.04 0.05 0.04 0.04 0.03 0.04 0.04 0.03 0.03 0.02 0.01 0.02 0.02 0.02 0.02 0.03 0.04 0.03 0.02 0.01 0.01 0.01 0.01 0.01 0.02 0.03
0.02 0.02 0.02 0.02 0.02 0.03 0.03 0.04 0.04 0.05 0.04 0.02 0.01 0.01 0.02 0.02 0.02 0.02 0.03 0.02 0.02 0.02 0.03 0.03 0.03 0.02 0.02 0.02 0.01 0.01 0.02 0.03 0.05 0.04 0.02 0.02 0.02 0.01 0.01 0.01 0.01 0.02 0.04
0.03 0.03 0.02 0.02 0.02 0.02 0.02 0.03 0.03 0.03 0.03 0.02 0.02 0.03 0.03 0.02 0.02 0.02 0.02 0.02 0.01 0.01 0.01 0.01 0.01 0.01 0.02 0.02 0.02 0.01 0.02 0.03 0.02 0.01 0.02 0.02 0.02 0.01 0.01 0.01 0.01 0.02 0.02
0.04 0.04 0.03 0.02 0.02 0.02 0.02 0.03 0.03 0.03 0.05 0.05 0.04 0.04 0.03 0.02 0.02 0.01 0.01 0.01 0.01 0.00 0.00 0.00 0.01 0.01 0.01 0.01 0.02 0.02 0.02 0.02 0.02 0.02 0.01 0.01 0.01 0.01 0.01 0.01 0.02 0.02 0.02
0.03 0.03 0.03 0.02 0.02 0.03 0.04 0.04 0.05 0.05 0.06 0.06 0.05 0.04 0.02 0.01 0.01 0.01 0.01 0.01 0.00 0.00 0.00 0.00 0.01 0.00 0.01 0.01 0.01 0.01 0.01 0.01 0.01 0.01 0.01 0.01 0.01 0.02 0.02 0.02 0.02 0.01 0.01
0.02 0.02 0.02 0.02 0.02 0.03 0.04 0.03 0.03 0.03 0.03 0.04 0.03 0.03 0.02 0.01 0.01 0.01 0.01 0.00 0.00 0.00 0.00 0.00 0.00 0.00 0.00 0.01 0.01 0.01 0.01 0.01 0.01 0.00 0.01 0.01 0.01 0.01 0.01 0.01 0.01 0.02 0.01
0.01 0.01 0.01 0.01 0.01 0.01 0.02 0.02 0.03 0.03 0.03 0.03 0.03 0.03 0.03 0.03 0.03 0.02 0.01 0.01 0.00 0.00 0.00 0.00 0.00 0.00 0.01 0.01 0.01 0.01 0.01 0.01 0.01 0.01 0.01 0.02 0.01 0.01 0.01 0.01 0.01 0.01 0.01
0.01 0.01 0.01 0.01 0.01 0.01 0.02 0.02 0.03 0.03 0.04 0.04 0.03 0.04 0.04 0.03 0.03 0.03 0.02 0.01 0.01 0.01 0.01 0.00 0.01 0.01 0.01 0.01 0.01 0.01 0.01 0.01 0.01 0.01 0.02 0.03 0.02 0.02 0.01 0.01 0.01 0.02 0.02
MSLP
1011.55 1011.54 1011.49 1011.43 1011.40 1011.43 1011.53 1011.68 1011.86 1012.03 1012.16 1012.20 1012.15 1012.01 1011.81 1011.58 1011.36 1011.17 1011.03 1010.97 1010.97 1011.02 1011.10 1011.18 1011.27 1011.35 1011.42 1011.48 1011.55 1011.63 1011.74 1011.87 1012.03 1012.23 1012.44 1012.66 1012.89 1013.09 1013.28 1013.44 1013.58 1013.72 1013.86
1011.25 1011.23 1011.17 1011.12 1011.11 1011.15 1011.25 1011.40 1011.58 1011.73 1011.84 1011.86 1011.79 1011.64 1011.42 1011.16 1010.91 1010.70 1010.54 1010.47 1010.46 1010.50 1010.58 1010.68 1010.76 1010.83 1010.88 1010.90 1010.92 1010.95 1011.00 1011.10 1011.24 1011.43 1011.66 1011.91 1012.17 1012.41 1012.63 1012.81 1012.97 1013.11 1013.25
1010.99 1010.96 1010.93 1010.90 1010.92 1010.98 1011.10 1011.24 1011.40 1011.53 1011.60 1011.59 1011.49 1011.31 1011.07 1010.79 1010.52 1010.28 1010.11 1010.01 1009.98 1010.01 1010.07 1010.15 1010.22 1010.26 1010.27 1010.25 1010.22 1010.19 1010.19 1010.24 1010.35 1010.53 1010.77 1011.05 1011.34 1011.64 1011.91 1012.14 1012.33 1012.50 1012.66
1010.83 1010.81 1010.80 1010.81 1010.86 1010.95 1011.08 1011.21 1011.34 1011.43 1011.45 1011.40 1011.27 1011.06 1010.80 1010.51 1010.22 1009.97 1009.78 1009.65 1009.59 1009.58 1009.61 1009.65 1009.67 1009.67 1009.63 1009.56 1009.47 1009.38 1009.33 1009.33 1009.41 1009.57 1009.80 1010.10 1010.44 1010.78 1011.10 1011.40 1011.64 1011.86 1012.06
1010.80 1010.79 1010.81 1010.86 1010.95 1011.06 1011.19 1011.31 1011.39 1011.43 1011.40 1011.31 1011.14 1010.91 1010.65 1010.36 1010.07 1009.82 1009.61 1009.45 1009.34 1009.28 1009.25 1009.22 1009.18 1009.12 1009.02 1008.88 1008.73 1008.58 1008.47 1008.41 1008.44 1008.57 1008.80 1009.10 1009.46 1009.85 1010.23 1010.58 1010.89 1011.16 1011.39
1010.93 1010.92 1010.97 1011.05 1011.17 1011.29 1011.41 1011.50 1011.55 1011.53 1011.46 1011.32 1011.13 1010.90 1010.65 1010.38 1010.11 1009.86 1009.63 1009.44 1009.28 1009.15 1009.04 1008.93 1008.81 1008.66 1008.49 1008.28 1008.06 1007.85 1007.67 1007.55 1007.53 1007.61 1007.81 1008.10 1008.47 1008.87 1009.29 1009.69 1010.05 1010.36 1010.63
1011.19 1011.19 1011.25 1011.35 1011.48 1011.61 1011.72 1011.78 1011.77 1011.71 1011.60 1011.44 1011.25 1011.04 1010.82 1010.58 1010.35 1010.11 1009.87 1009.64 1009.42 1009.21 1009.00 1008.79 1008.58 1008.34 1008.08 1007.81 1007.52 1007.24 1006.99 1006.81 1006.72 1006.75 1006.89 1007.14 1007.48 1007.89 1008.32 1008.74 1009.13 1009.47 1009.76
1011.57 1011.55 1011.61 1011.73 1011.86 1011.98 1012.06 1012.09 1012.05 1011.95 1011.82 1011.66 1011.49 1011.31 1011.14 1010.95 1010.76 1010.54 1010.29 1010.02 1009.73 1009.43 1009.12 1008.81 1008.50 1008.17 1007.83 1007.48 1007.13 1006.78 1006.47 1006.22 1006.06 1006.02 1006.09 1006.28 1006.57 1006.94 1007.34 1007.76 1008.15 1008.49 1008.79
1012.00 1011.97 1012.02 1012.13 1012.25 1012.35 1012.41 1012.40 1012.34 1012.22 1012.08 1011.93 1011.80 1011.68 1011.56 1011.43 1011.28 1011.08 1010.82 1010.51 1010.15 1009.76 1009.36 1008.94 1008.53 1008.12 1007.71 1007.29 1006.88 1006.49 1006.12 1005.80 1005.57 1005.44 1005.43 1005.54 1005.76 1006.06 1006.42 1006.79 1007.16 1007.48 1007.76
1012.43 1012.38 1012.41 1012.50 1012.61 1012.69 1012.71 1012.68 1012.59 1012.47 1012.34 1012.22 1012.13 1012.07 1012.01 1011.94 1011.82 1011.63 1011.36 1011.01 1010.59 1010.11 1009.61 1009.11 1008.62 1008.13 1007.66 1007.20 1006.75 1006.31 1005.89 1005.52 1005.22 1005.02 1004.92 1004.95 1005.08 1005.30 1005.58 1005.89 1006.20 1006.49 1006.74
1012.80 1012.74 1012.75 1012.82 1012.90 1012.95 1012.95 1012.89 1012.79 1012.67 1012.55 1012.47 1012.43 1012.41 1012.41 1012.37 1012.28 1012.09 1011.80 1011.41 1010.93 1010.38 1009.81 1009.23 1008.67 1008.14 1007.62 1007.13 1006.64 1006.18 1005.73 1005.31 1004.96 1004.69 1004.52 1004.46 1004.51 1004.64 1004.84 1005.08 1005.33 1005.56 1005.76
1013.10 1013.02 1013.02 1013.06 1013.11 1013.12 1013.09 1013.01 1012.90 1012.78 1012.69 1012.63 1012.62 1012.64 1012.67 1012.66 1012.58 1012.39 1012.07 1011.64 1011.11 1010.51 1009.88 1009.25 1008.64 1008.07 1007.53 1007.01 1006.51 1006.02 1005.55 1005.11 1004.72 1004.40 1004.17 1004.05 1004.02 1004.08 1004.20 1004.37 1004.55 1004.72 1004.87
1013.30 1013.22 1013.21 1013.23 1013.24 1013.22 1013.16 1013.05 1012.93 1012.81 1012.72 1012.68 1012.69 1012.73 1012.77 1012.77 1012.68 1012.47 1012.13 1011.67 1011.10 1010.46 1009.80 1009.14 1008.50 1007.90 1007.34 1006.81 1006.29 1005.80 1005.31 1004.85 1004.44 1004.09 1003.82 1003.65 1003.57 1003.57 1003.63 1003.73 1003.84 1003.96 1004.06
1013.45 1013.37 1013.35 1013.34 1013.32 1013.26 1013.17 1013.04 1012.89 1012.76 1012.67 1012.63 1012.64 1012.68 1012.71 1012.70 1012.59 1012.36 1012.00 1011.52 1010.93 1010.28 1009.59 1008.91 1008.26 1007.64 1007.07 1006.52 1005.99 1005.48 1004.98 1004.51 1004.09 1003.72 1003.44 1003.24 1003.12 1003.08 1003.09 1003.14 1003.20 1003.26 1003.31
1013.57 1013.50 1013.47 1013.43 1013.38 1013.29 1013.16 1013.00 1012.83 1012.68 1012.58 1012.53 1012.52 1012.54 1012.55 1012.51 1012.38 1012.13 1011.76 1011.27 1010.67 1010.02 1009.33 1008.64 1007.98 1007.34 1006.74 1006.17 1005.62 1005.09 1004.58 1004.10 1003.67 1003.30 1003.01 1002.80 1002.67 1002.60 1002.58 1002.58 1002.59 1002.59 1002.59
1013.71 1013.65 1013.61 1013.55 1013.46 1013.33 1013.17 1012.98 1012.79 1012.61 1012.49 1012.41 1012.37 1012.36 1012.33 1012.27 1012.11 1011.85 1011.48 1010.99 1010.40 1009.76 1009.08 1008.39 1007.72 1007.07 1006.44 1005.84 1005.25 1004.69 1004.16 1003.66 1003.23 1002.86 1002.57 1002.36 1002.22 1002.14 1002.08 1002.04 1002.00 1001.95 1001.88
1013.90 1013.85 1013.79 1013.70 1013.59 1013.43 1013.23 1013.01 1012.79 1012.59 1012.43 1012.32 1012.25 1012.20 1012.14 1012.04 1011.87 1011.60 1011.23 1010.75 1010.19 1009.57 1008.91 1008.23 1007.55 1006.88 1006.22 1005.58 1004.95 1004.36 1003.80 1003.29 1002.85 1002.48 1002.20 1001.99 1001.84 1001.73 1001.64 1001.55 1001.45 1001.33 1001.20
1014.14 1014.08 1014.01 1013.90 1013.75 1013.57 1013.34 1013.10 1012.85 1012.62 1012.43 1012.28 1012.17 1012.08 1011.99 1011.86 1011.67 1011.40 1011.04 1010.59 1010.07 1009.47 1008.84 1008.17 1007.49 1006.80 1006.11 1005.43 1004.78 1004.15 1003.57 1003.05 1002.60 1002.23 1001.95 1001.73 1001.57 1001.43 1001.30 1001.15 1000.98 1000.78 1000.56
1014.41 1014.33 1014.23 1014.11 1013.93 1013.72 1013.48 1013.21 1012.94 1012.69 1012.47 1012.29 1012.14 1012.01 1011.88 1011.72 1011.52 1011.25 1010.91 1010.49 1009.99 1009.44 1008.83 1008.18 1007.51 1006.81 1006.11 1005.41 1004.73 1004.09 1003.49 1002.97 1002.52 1002.16 1001.87 1001.64 1001.45 1001.27 1001.08 1000.87 1000.61 1000.33 1000.02
1014.65 1014.55 1014.43 1014.27 1014.08 1013.85 1013.59 1013.31 1013.03 1012.75 1012.51 1012.29 1012.11 1011.94 1011.77 1011.59 1011.38 1011.10 1010.77 1010.38 1009.92 1009.40 1008.82 1008.20 1007.55 1006.86 1006.17 1005.47 1004.79 1004.15 1003.56 1003.05 1002.61 1002.25 1001.96 1001.71 1001.49 1001.26 1001.01 1000.72 1000.39 1000.02 999.62
1014.82 1014.69 1014.54 1014.37 1014.16 1013.91 1013.64 1013.35 1013.06 1012.77 1012.50 1012.26 1012.04 1011.83 1011.63 1011.41 1011.18 1010.90 1010.58 1010.20 1009.77 1009.28 1008.74 1008.16 1007.53 1006.88 1006.21 1005.54 1004.89 1004.28 1003.72 1003.23 1002.81 1002.46 1002.17 1001.91 1001.65 1001.38 1001.07 1000.70 1000.29 999.85 999.38
1014.88 1014.73 1014.55 1014.35 1014.13 1013.88 1013.60 1013.31 1013.01 1012.71 1012.43 1012.16 1011.90 1011.65 1011.41 1011.16 1010.90 1010.60 1010.28 1009.91 1009.49 1009.03 1008.53 1007.99 1007.40 1006.79 1006.17 1005.55 1004.95 1004.39 1003.88 1003.43 1003.04 1002.71 1002.42 1002.14 1001.86 1001.54 1001.18 1000.76 1000.29 999.79 999.28
1014.83 1014.64 1014.44 1014.23 1013.99 1013.74 1013.46 1013.18 1012.88 1012.58 1012.28 1011.98 1011.69 1011.41 1011.13 1010.83 1010.54 1010.22 1009.87 1009.50 1009.09 1008.65 1008.18 1007.67 1007.13 1006.58 1006.01 1005.45 1004.92 1004.42 1003.96 1003.56 1003.21 1002.90 1002.61 1002.32 1002.01 1001.66 1001.26 1000.80 1000.30 999.78 999.26
1014.69 1014.47 1014.25 1014.02 1013.78 1013.53 1013.26 1012.98 1012.69 1012.38 1012.07 1011.76 1011.44 1011.13 1010.80 1010.47 1010.13 1009.78 1009.41 1009.02 1008.61 1008.18 1007.73 1007.25 1006.76 1006.25 1005.74 1005.24 1004.77 1004.33 1003.92 1003.57 1003.25 1002.95 1002.66 1002.36 1002.03 1001.66 1001.24 1000.77 1000.27 999.76 999.26
1014.50 1014.26 1014.02 1013.78 1013.54 1013.29 1013.04 1012.77 1012.48 1012.18 1011.87 1011.54 1011.21 1010.86 1010.50 1010.14 1009.76 1009.37 1008.98 1008.57 1008.15 1007.72 1007.27 1006.81 1006.35 1005.88 1005.42 1004.97 1004.54 1004.15 1003.78 1003.45 1003.14 1002.85 1002.55 1002.24 1001.89 1001.50 1001.08 1000.62 1000.14 999.66 999.22
1014.31 1014.05 1013.80 1013.56 1013.32 1013.08 1012.83 1012.57 1012.30 1012.01 1011.70 1011.38 1011.03 1010.66 1010.28 1009.89 1009.48 1009.07 1008.64 1008.22 1007.78 1007.35 1006.91 1006.46 1006.02 1005.57 1005.14 1004.72 1004.32 1003.94 1003.59 1003.26 1002.95 1002.64 1002.33 1001.99 1001.63 1001.23 1000.81 1000.37 999.92 999.50 999.11
Thickness
5727 5726 5726 5725 5724 5724 5723 5722 5721 5720 5719 5718 5717 5716 5715 5713 5712 5711 5710 5709 5708 5707 5706 5705 5704 5704 5703 5702 5701 5700 5700 5699 5698 5698 5697 5697 5696 5696 5696 5695 5695 5695 5695
5724 5723 5722 5721 5720 5720 5720 5719 5718 5717 5715 5715 5714 5714 5713 5712 5710 5709 5707 5707 5706 5705 5704 5703 5702 5701 5700 5699 5698 5697 5697 5696 5696 5695 5694 5693 5693 5692 5692 5692 5692 5691 5691
5721 5720 5719 5717 5717 5716 5716 5715 5714 5714 5713 5712 5711 5711 5710 5709 5708 5706 5705 5705 5704 5703 5702 5701 5700 5699 5698 5697 5696 5695 5694 5693 5692 5692 5691 5690 5690 5689 5688 5688 5688 5688 5687
5717 5716 5715 5714 5714 5713 5712 5711 5710 5708 5708 5707 5706 5707 5707 5706 5706 5704 5703 5702 5701 5700 5699 5698 5697 5696 5695 5694 5693 5692 5691 5690 5689 5688 5687 5687 5686 5685 5685 5684 5684 5684 5684
5713 5713 5711 5711 5710 5709 5708 5708 5705 5704 5703 5702 5702 5703 5703 5702 5702 5701 5700 5699 5697 5697 5695 5694 5693 5693 5692 5691 5690 5689 5688 5687 5686 5685 5684 5683 5682 5681 5681 5680 5680 5680 5680
5709 5709 5708 5706 5705 5704 5702 5703 5702 5701 5699 5698 5698 5698 5697 5698 5698 5697 5696 5695 5694 5693 5692 5690 5689 5688 5688 5687 5687 5685 5685 5683 5682 5681 5680 5679 5678 5677 5677 5676 5676 5676 5676
5705 5704 5703 5701 5700 5699 5698 5697 5696 5695 5694 5693 5690 5688 5690 5692 5693 5693 5692 5690 5689 5689 5688 5686 5685 5684 5684 5683 5683 5682 5681 5680 5679 5678 5676 5675 5673 5673 5672 5672 5671 5671 5671
5700 5700 5698 5696 5695 5694 5692 5692 5691 5689 5688 5689 5685 5680 5676 5679 5684 5688 5687 5686 5685 5684 5683 5683 5681 5681 5680 5679 5679 5678 5677 5676 5675 5673 5672 5670 5669 5668 5668 5667 5666 5666 5666
5695 5695 5693 5692 5690 5689 5688 5687 5686 5684 5682 5683 5683 5677 5670 5668 5672 5678 5680 5681 5680 5679 5678 5678 5677 5676 5675 5674 5674 5673 5673 5672 5670 5669 5667 5665 5664 5663 5662 5662 5661 5661 5661
5691 5690 5689 5688 5687 5685 5684 5684 5683 5682 5680 5677 5677 5676 5674 5671 5666 5666 5671 5674 5674 5674 5674 5673 5673 5672 5671 5669 5669 5669 5668 5667 5666 5664 5662 5660 5658 5657 5656 5656 5655 5655 5655
5687 5686 5685 5684 5683 5681 5681 5680 5679 5679 5678 5675 5673 5671 5669 5667 5665 5661 5659 5663 5666 5668 5668 5668 5667 5666 5665 5664 5663 5663 5662 5662 5660 5658 5656 5654 5653 5652 5651 5650 5649 5649 5649
5682 5682 5681 5680 5679 5678 5677 5676 5675 5675 5674 5672 5671 5668 5665 5662 5660 5657 5655 5654 5655 5659 5661 5661 5660 5659 5657 5656 5656 5656 5656 5654 5653 5651 5649 5648 5646 5646 5645 5644 5644 5644 5644
5678 5677 5677 5676 5675 5675 5674 5673 5672 5671 5670 5668 5667 5664 5662 5660 5658 5655 5651 5649 5648 5650 5652 5653 5653 5651 5650 5649 5649 5648 5648 5647 5645 5644 5642 5641 5640 5639 5639 5638 5638 5638 5638
5675 5675 5675 5674 5673 5671 5671 5670 5668 5668 5667 5665 5663 5661 5659 5657 5655 5652 5648 5644 5641 5640 5641 5643 5644 5644 5643 5642 5641 5640 5639 5639 5637 5636 5634 5633 5632 5632 5631 5632 5632 5632 5631
5673 5673 5672 5671 5670 5668 5667 5666 5664 5663 5662 5660 5658 5656 5654 5653 5652 5649 5646 5642 5636 5631 5631 5634 5634 5636 5635 5634 5633 5631 5630 5630 5629 5627 5626 5625 5624 5624 5624 5624 5624 5624 5624
5672 5671 5670 5668 5667 5665 5663 5662 5660 5659 5657 5655 5654 5651 5649 5648 5646 5644 5642 5638 5634 5629 5625 5627 5627 5627 5626 5626 5625 5623 5622 5621 5620 5619 5618 5617 5616 5615 5615 5615 5616 5616 5616
5670 5669 5667 5665 5663 5661 5660 5658 5656 5655 5653 5651 5648 5646 5644 5642 5640 5638 5636 5633 5629 5625 5620 5620 5620 5620 5618 5616 5615 5614 5613 5612 5612 5611 5610 5609 5608 5607 5607 5607 5607 5608 5609
5668 5666 5665 5663 5660 5658 5657 5655 5653 5651 5648 5646 5643 5641 5639 5637 5634 5632 5629 5627 5624 5620 5616 5612 5612 5611 5611 5609 5608 5606 5605 5605 5604 5603 5602 5601 5600 5599 5599 5599 5599 5600 5601
5664 5664 5662 5660 5658 5656 5654 5652 5650 5648 5645 5642 5640 5637 5634 5632 5629 5627 5624 5621 5618 5616 5612 5607 5604 5604 5603 5602 5600 5599 5598 5596 5596 5596 5595 5594 5592 5592 5591 5591 5592 5592 5593
5662 5661 5660 5658 5657 5655 5653 5651 5648 5645 5642 5639 5637 5634 5631 5629 5626 5624 5621 5617 5614 5610 5606 5601 5598 5596 5595 5594 5592 5589 5588 5588 5587 5588 5586 5585 5585 5584 5584 5584 5584 5585 5585
5660 5659 5657 5655 5654 5652 5650 5647 5645 5642 5638 5635 5633 5630 5629 5627 5625 5622 5619 5614 5610 5605 5600 5596 5592 5590 5588 5586 5584 5582 5580 5579 5579 5579 5577 5577 5576 5576 5576 5576 5577 5577 5577
5658 5656 5654 5653 5651 5649 5647 5644 5642 5639 5635 5631 5628 5627 5626 5624 5622 5619 5616 5613 5609 5603 5597 5592 5588 5585 5583 5581 5579 5577 5573 5570 5569 5571 5568 5568 5568 5567 5568 5569 5569 5570 5570
5655 5653 5651 5649 5647 5645 5643 5641 5639 5635 5631 5628 5625 5623 5622 5621 5617 5614 5611 5609 5605 5601 5597 5591 5585 5582 5580 5579 5575 5571 5568 5564 5562 5564 5561 5560 5560 5559 5561 5562 5562 5562 5562
5653 5651 5649 5647 5644 5642 5641 5638 5635 5631 5628 5625 5622 5620 5617 5615 5613 5609 5606 5602 5599 5596 5593 5589 5585 5582 5579 5577 5572 5568 5564 5561 5559 5558 5555 5552 5553 5553 5555 5554 5554 5554 5555
5650 5649 5647 5644 5641 5639 5637 5635 5632 5627 5624 5621 5619 5617 5614 5611 5609 5605 5600 5596 5593 5591 5589 5586 5583 5580 5577 5574 5570 5564 5559 5555 5552 5552 5551 5547 5547 5546 5546 5547 5548 5548 5547
5649 5647 5644 5642 5639 5636 5635 5632 5629 5624 5620 5617 5615 5613 5611 5607 5604 5601 5596 5591 5587 5585 5582 5580 5578 5576 5573 5570 5567 5562 5557 5552 5548 5546 5547 5544 5542 5539 5538 5540 5540 5540 5540